{"data":{"norad_id":61216,"intl_designator":"2024-171S","name":"STARLINK-32425","alt_names":[],"object_type":"PAYLOAD","status":"ACTIVE","operator":null,"country":"US","launch_date":"2024-09-20","launch_site_code":"AFWTR","launch_vehicle":null,"mission":null,"orbit_class":"UNKNOWN","rcs_meters":null,"size_class":null,"mass_kg":null,"dimensions":null,"purposes":["comms"],"wikipedia_slug":null,"has_3d_model":false,"image_url":null,"decayed_at":null,"tle_current":{"epoch":"2026-09-21T20:11:09.540960Z","epoch_age_seconds":76266,"freshness":"FRESH","line1":"1 61216U 24171S   26264.84108265  .00000087  00000+0  14565-4 0  9994","line2":"2 61216  53.1597 130.3851 0001532  70.9197 289.1970 15.31701483112411","mean_motion":15.31701483,"eccentricity":0.0001532,"inclination_deg":53.1597,"raan_deg":130.3851,"arg_perigee_deg":70.9197,"mean_anomaly_deg":289.197,"bstar":1.4565e-5,"rev_number":11241,"period_min":94.013096937114,"perigee_km":469.68632720497,"apogee_km":471.78482176179,"semimajor_km":6848.8725744834,"source":"CELESTRAK","updated_at":"2026-09-22T09:00:49.342722Z"}}}